Location: Eastlake (historical)
(39.0077°N, 122.6678°W)
Time: 09:44:29
(UTC+00:00)

ALOS - Pass Details

Date: 22 April 2021
Orbit: 682 x 685 km, 97.9° (Epoch: 08 May)

Event Time Altitude Azimuth Distance (km) Brightness Sun altitude
Rises 11:46:25 0° 22° (NNE) 3,053 6.5 -17.9°
Reaches altitude 10° 11:48:51 10° 32° (NNE) 2,132 5.8 -17.5°
Maximum altitude 11:53:06 34° 97° (E) 1,118 3.8 -16.8°
Drops below altitude 10° 11:57:18 10° 162° (SSE) 2,118 4.7 -16.1°
Sets 11:59:42 0° 172° (S) 3,029 5.4 -15.7°
